EN

Hourly Weather Parcel

Today, 21 April, Wednesday

Time Temperature Precipitation Wind Pressure Humidity
00:00 +8°C° 0 mm 1 mps 749 mmHg 82%
01:00 +7°C° 0 mm 2 mps 749 mmHg 83%
02:00 +7°C° 0 mm 2 mps 749 mmHg 85%
03:00 +6°C° 0 mm 2 mps 749 mmHg 87%
04:00 +6°C° 0 mm 2 mps 749 mmHg 89%
05:00 +7°C° 0.1 mm 2 mps 749 mmHg 87%
06:00 +8°C° 0.1 mm 2 mps 749 mmHg 85%
07:00 +9°C° 0 mm 3 mps 749 mmHg 81%
08:00 +10°C° 0.2 mm 2 mps 749 mmHg 77%
09:00 +12°C° 0.2 mm 2 mps 748 mmHg 72%
10:00 +13°C° 0.2 mm 2 mps 748 mmHg 67%
11:00 +13°C° 0.4 mm 3 mps 748 mmHg 63%
12:00 +14°C° 0.4 mm 3 mps 748 mmHg 59%
13:00 +14°C° 0.4 mm 3 mps 748 mmHg 56%
14:00 +14°C° 0.2 mm 3 mps 748 mmHg 57%
15:00 +14°C° 0.2 mm 3 mps 747 mmHg 57%
16:00 +14°C° 0.2 mm 3 mps 747 mmHg 58%
17:00 +13°C° 0 mm 3 mps 747 mmHg 63%
18:00 +12°C° 0 mm 3 mps 747 mmHg 68%
19:00 +10°C° 0 mm 2 mps 747 mmHg 73%
20:00 +10°C° 0 mm 2 mps 747 mmHg 75%
21:00 +9°C° 0 mm 3 mps 747 mmHg 77%
22:00 +9°C° 0 mm 3 mps 747 mmHg 79%
23:00 +8°C° 0.1 mm 3 mps 747 mmHg 82%

Tomorrow, 22 April, Thursday

Time Temperature Precipitation Wind Pressure Humidity
00:00 +8°C° 0.1 mm 3 mps 748 mmHg 84%
01:00 +7°C° 0.1 mm 3 mps 748 mmHg 86%
02:00 +6°C° 0.1 mm 4 mps 748 mmHg 87%
03:00 +5°C° 0.1 mm 4 mps 748 mmHg 89%
04:00 +4°C° 0.1 mm 4 mps 748 mmHg 90%
05:00 +5°C° 0.1 mm 5 mps 749 mmHg 84%
06:00 +5°C° 0.1 mm 5 mps 749 mmHg 79%
07:00 +4°C° 0.1 mm 6 mps 749 mmHg 74%
08:00 +4°C° 0 mm 6 mps 750 mmHg 67%
09:00 +5°C° 0 mm 6 mps 750 mmHg 59%
10:00 +5°C° 0 mm 7 mps 750 mmHg 52%
11:00 +6°C° 0 mm 7 mps 750 mmHg 52%
12:00 +6°C° 0 mm 7 mps 750 mmHg 52%
13:00 +6°C° 0 mm 7 mps 750 mmHg 52%
14:00 +6°C° 0 mm 7 mps 750 mmHg 55%
15:00 +6°C° 0 mm 7 mps 750 mmHg 57%
16:00 +6°C° 0 mm 7 mps 750 mmHg 59%
17:00 +5°C° 0.2 mm 7 mps 751 mmHg 66%
18:00 +4°C° 0.2 mm 6 mps 751 mmHg 74%
19:00 +3°C° 0.2 mm 6 mps 751 mmHg 81%
20:00 +2°C° 0 mm 6 mps 751 mmHg 82%
21:00 +1°C° 0 mm 5 mps 751 mmHg 83%
22:00 +1°C° 0 mm 5 mps 751 mmHg 84%
23:00 0°C° 0 mm 5 mps 751 mmHg 84%

Day after tomorrow, 23 April, Friday

Time Temperature Precipitation Wind Pressure Humidity
00:00 0°C° 0 mm 5 mps 751 mmHg 83%
01:00 0°C° 0 mm 5 mps 751 mmHg 83%
02:00 0°C° 0 mm 5 mps 752 mmHg 83%
03:00 0°C° 0 mm 5 mps 752 mmHg 83%
04:00 -1°C° 0 mm 5 mps 752 mmHg 83%
05:00 0°C° 0 mm 5 mps 752 mmHg 80%
06:00 +1°C° 0 mm 5 mps 752 mmHg 77%
07:00 +2°C° 0 mm 5 mps 753 mmHg 74%
08:00 +3°C° 0 mm 5 mps 753 mmHg 64%
09:00 +5°C° 0 mm 5 mps 753 mmHg 54%
10:00 +7°C° 0 mm 6 mps 753 mmHg 44%
11:00 +7°C° 0.1 mm 6 mps 753 mmHg 44%
12:00 +7°C° 0.1 mm 6 mps 752 mmHg 44%
13:00 +8°C° 0.1 mm 6 mps 752 mmHg 43%
14:00 +5°C° 0.5 mm 6 mps 752 mmHg 58%
15:00 +4°C° 0.5 mm 6 mps 752 mmHg 72%
16:00 +2°C° 0.5 mm 6 mps 752 mmHg 86%
17:00 +2°C° 0.6 mm 5 mps 753 mmHg 87%
18:00 +1°C° 0.6 mm 5 mps 753 mmHg 88%
19:00 0°C° 0.6 mm 4 mps 754 mmHg 89%
20:00 -1°C° 0 mm 4 mps 754 mmHg 89%
21:00 -2°C° 0 mm 4 mps 754 mmHg 88%
22:00 -2°C° 0 mm 4 mps 755 mmHg 88%
23:00 -3°C° 0 mm 4 mps 755 mmHg 88%

24 April, Saturday

Time Temperature Precipitation Wind Pressure Humidity
00:00 -2°C° 0 mm 3 mps 755 mmHg 89%
01:00 -2°C° 0 mm 3 mps 755 mmHg 90%
02:00 -2°C° 0 mm 3 mps 755 mmHg 88%
03:00 -3°C° 0 mm 4 mps 755 mmHg 86%
04:00 -2°C° 0 mm 4 mps 755 mmHg 84%
05:00 -1°C° 0 mm 4 mps 755 mmHg 80%
06:00 0°C° 0 mm 4 mps 755 mmHg 77%
07:00 +1°C° 0 mm 5 mps 755 mmHg 73%
08:00 +2°C° 0.1 mm 5 mps 755 mmHg 67%
09:00 +3°C° 0.1 mm 6 mps 755 mmHg 62%
10:00 +5°C° 0.1 mm 6 mps 755 mmHg 57%
11:00 +5°C° 0.2 mm 7 mps 755 mmHg 55%
12:00 +5°C° 0.2 mm 7 mps 755 mmHg 53%
13:00 +6°C° 0.2 mm 7 mps 755 mmHg 51%
14:00 +5°C° 0.1 mm 7 mps 755 mmHg 51%
15:00 +5°C° 0.1 mm 6 mps 755 mmHg 51%
16:00 +5°C° 0.1 mm 6 mps 755 mmHg 51%
17:00 +5°C° 0.1 mm 5 mps 755 mmHg 57%
18:00 +3°C° 0.1 mm 4 mps 756 mmHg 62%
19:00 +2°C° 0.1 mm 3 mps 756 mmHg 68%
20:00 +1°C° 0 mm 3 mps 756 mmHg 71%
21:00 -1°C° 0 mm 4 mps 756 mmHg 75%
22:00 -2°C° 0 mm 4 mps 756 mmHg 78%
23:00 -3°C° 0 mm 4 mps 756 mmHg 80%

25 April, Sunday

Time Temperature Precipitation Wind Pressure Humidity
00:00 -3°C° 0 mm 4 mps 756 mmHg 83%
01:00 -3°C° 0 mm 4 mps 756 mmHg 85%
02:00 -3°C° 0 mm 4 mps 757 mmHg 86%
03:00 -3°C° 0 mm 4 mps 757 mmHg 88%
04:00 -3°C° 0 mm 4 mps 757 mmHg 90%
05:00 -2°C° 0 mm 5 mps 757 mmHg 82%
06:00 0°C° 0 mm 5 mps 757 mmHg 75%
07:00 +1°C° 0 mm 6 mps 757 mmHg 67%
08:00 +2°C° 0.1 mm 6 mps 757 mmHg 64%
09:00 +3°C° 0.1 mm 7 mps 757 mmHg 61%
10:00 +4°C° 0.1 mm 7 mps 757 mmHg 57%
11:00 +4°C° 0.4 mm 7 mps 756 mmHg 57%
12:00 +4°C° 0.4 mm 7 mps 756 mmHg 57%
13:00 +5°C° 0.4 mm 7 mps 756 mmHg 57%
14:00 +5°C° 0.3 mm 7 mps 755 mmHg 57%
15:00 +4°C° 0.3 mm 6 mps 755 mmHg 57%
16:00 +4°C° 0.3 mm 6 mps 755 mmHg 58%
17:00 +3°C° 0 mm 5 mps 755 mmHg 61%
18:00 +1°C° 0 mm 4 mps 756 mmHg 64%
19:00 +1°C° 0 mm 3 mps 756 mmHg 67%
20:00 0°C° 0 mm 3 mps 756 mmHg 70%
21:00 -1°C° 0 mm 3 mps 756 mmHg 73%
22:00 -2°C° 0 mm 3 mps 756 mmHg 76%
23:00 -2°C° 0 mm 3 mps 756 mmHg 77%

26 April, Monday

Time Temperature Precipitation Wind Pressure Humidity
00:00 -4°C° 0 mm 3 mps 756 mmHg 78%
01:00 -4°C° 0 mm 3 mps 756 mmHg 79%
02:00 -4°C° 0 mm 3 mps 756 mmHg 78%
03:00 -4°C° 0 mm 3 mps 756 mmHg 78%
04:00 -4°C° 0 mm 3 mps 756 mmHg 77%
05:00 -2°C° 0 mm 4 mps 756 mmHg 73%
06:00 0°C° 0 mm 4 mps 756 mmHg 68%
07:00 +2°C° 0 mm 5 mps 756 mmHg 63%
08:00 +5°C° 0 mm 5 mps 756 mmHg 56%
09:00 +6°C° 0 mm 5 mps 756 mmHg 49%
10:00 +8°C° 0 mm 5 mps 756 mmHg 42%
11:00 +10°C° 0 mm 4 mps 755 mmHg 41%
12:00 +10°C° 0 mm 4 mps 755 mmHg 40%
13:00 +11°C° 0 mm 4 mps 755 mmHg 39%
14:00 +11°C° 0 mm 4 mps 754 mmHg 40%
15:00 +11°C° 0 mm 3 mps 754 mmHg 41%
16:00 +11°C° 0 mm 3 mps 754 mmHg 42%
17:00 +9°C° 0 mm 2 mps 754 mmHg 48%
18:00 +7°C° 0 mm 2 mps 754 mmHg 55%
19:00 +6°C° 0 mm 1 mps 753 mmHg 61%
20:00 +6°C° 0 mm 1 mps 753 mmHg 63%
21:00 +5°C° 0 mm 1 mps 753 mmHg 64%
22:00 +4°C° 0 mm 1 mps 753 mmHg 66%
23:00 +4°C° 0 mm 1 mps 753 mmHg 67%
Show more

We Need Your Consent

Meteoprog and our Service Providers may store and access personal data such as cookies, device identifiers or other similar technologies on your device and process such data to personalise content and ads, as well as provide social media features and to analyse the traffic.

  • Store and/or access information on your device

    Cookies, device identifiers or other information can be stored or accessed on your device for the purposes indicated above.

  • Personalised ads and content, ad and content measurement, audience insights, and products development

    Ads and content can be personalised based on a profile. More data can be added to better personalise ads and content. Ad and content performance can be measured. Insights about the audience who saw the ads and content can be derived. Such data can be used to develop or improve user’s experience, systems and software.

By clicking ‘I Agree’ you will allow the use of indicated cookies, device identifiers, web beacons or other similar technologies. Your settings can be changed in the browser on your device.

For certain purposes, legitimate interests may be relied on, rather than consent. You can read more about this in our Privacy and Cookie Policy.